2022�N�x�@��C������Ԃɂ�鑪�茋��,,,,,,,,,,,,,,,
,,,,,,,,,,,,,,,
�P�@����n�_,,,,,,,,,,,,,,,
���i�s�I�b�i���i�s�I�b���r��268�Ԓn),,,,,,,,,,,,,,,
,,,,,,,,,,,,,,,
�Q�@���Ԓl�i�m��l�j��2022�N11��29���`2022�N12��21��,,,,,,,,,,,,,,,
,,,,,,,,,,,,,,,
,�N,��,��,��,SO2,SPM,Ox,CO,NO,NO2,PM2.5,���x,���x,����,����
,,,,,ppm,mg/m3,ppm,ppm,ppm,ppm,��g/m3,��,%,�ő�,m/s
H04,2022,11,29,1,***,0.003,0.028,***,***,***,4,16.5,94.3,ESE,2.2
H04,2022,11,29,2,0.001,0.009,0.032,0.1,0,0.004,4,16.5,95.6,ESE,2.4
H04,2022,11,29,3,0.001,0.008,0.033,0.1,0,0.003,5,17.1,92.1,ESE,2.9
H04,2022,11,29,4,0.001,0.01,0.032,0.1,0,0.003,5,17.3,92.9,ESE,1.8
H04,2022,11,29,5,0.001,0.013,0.03,0.1,0,0.004,3,17.7,89.8,SE,1.3
H04,2022,11,29,6,0.001,0.016,0.03,0.1,0,0.005,5,18.2,87.9,SE,2.8
H04,2022,11,29,7,0.001,0.018,0.029,0.1,0,0.006,6,19,83.5,SE,2.5
H04,2022,11,29,8,0.001,0.017,0.029,0.2,0.001,0.008,9,19.5,79.6,SE,2.9
H04,2022,11,29,9,0.001,0.019,0.029,0.2,0.001,0.008,9,20.1,79,SE,2.8
H04,2022,11,29,10,0.001,0.02,0.031,0.2,0.001,0.007,8,20.1,82.8,SE,3.7
H04,2022,11,29,11,0.001,0.025,0.031,0.2,0.001,0.006,10,19.8,85.2,SE,3.6
H04,2022,11,29,12,0.001,0.02,0.029,0.2,0.001,0.007,8,19.4,91,SE,3
H04,2022,11,29,13,0.001,0.022,0.03,0.2,0.001,0.007,8,19.5,90.7,SE,4
H04,2022,11,29,14,0.001,0.021,0.03,0.2,0.001,0.006,7,20,88,SE,3.6
H04,2022,11,29,15,0.001,0.026,0.029,0.2,0.001,0.007,10,20.1,92.3,SE,2.9
H04,2022,11,29,16,0.001,0.027,0.028,0.2,0.001,0.006,9,20,90.3,SE,3.3
H04,2022,11,29,17,0.001,0.032,0.029,0.2,0.001,0.005,10,19.8,94.1,SE,3.9
H04,2022,11,29,18,0.001,0.025,0.029,0.2,0.001,0.005,8,19.5,93.2,SSE,3
H04,2022,11,29,19,0.001,0.028,0.028,0.2,0.001,0.005,9,19.7,97.9,SE,3.6
H04,2022,11,29,20,0.001,0.031,0.029,0.1,0,0.004,9,20.3,96.7,SSE,2.8
H04,2022,11,29,21,0.001,0.032,0.029,0.1,0,0.003,9,20.1,98.3,SSE,2.3
H04,2022,11,29,22,0.001,0.022,0.028,0.2,0,0.004,7,19.7,96.3,SW,2.8
H04,2022,11,29,23,0.001,0.005,0.023,0.2,0.001,0.007,1,18.8,95.1,NNW,2
H04,2022,11,29,24,0.001,0.005,0.026,0.2,0,0.006,0,18,89.1,N,1.4
H04,2022,11,30,1,0.001,0.006,0.032,0.2,0,0.004,1,17.6,86.9,NNW,1.6
H04,2022,11,30,2,0.001,0.004,0.031,0.2,0,0.004,-1,17.6,86.1,WNW,1.8
H04,2022,11,30,3,0.001,0.004,0.032,0.2,0,0.004,1,17.7,83.6,WNW,2.8
H04,2022,11,30,4,0.001,0.004,0.034,0.2,0,0.003,1,17.1,86.8,NNW,2.5
H04,2022,11,30,5,0.001,0.002,0.033,0.2,0,0.003,1,16.8,85.8,NNW,2.7
H04,2022,11,30,6,0.001,0.001,0.032,0.2,0,0.004,0,16.5,85.4,NNW,2.6
H04,2022,11,30,7,0.001,0.004,0.031,0.2,0,0.004,2,16.1,78.5,NW,3.6
H04,2022,11,30,8,0.001,0.004,0.031,0.2,0,0.005,2,16,74.3,NW,3.5
H04,2022,11,30,9,0.001,0.007,0.032,0.2,0.001,0.005,3,17.4,57.8,NW,5.6
H04,2022,11,30,10,0.001,0.006,0.032,0.2,0.001,0.006,3,17.2,56.9,NNW,5.6
H04,2022,11,30,11,0.001,0.008,0.034,0.2,0.001,0.004,6,17.4,49,NNW,5.6
H04,2022,11,30,12,0.001,0.011,0.034,0.2,0.002,0.006,9,18,46.9,NNW,4.2
H04,2022,11,30,13,0.001,0.01,0.035,0.2,0.001,0.005,4,17.8,48.5,NNW,4.1
H04,2022,11,30,14,0.001,0.012,0.035,0.2,0.001,0.005,9,17.3,56.2,NW,3.6
H04,2022,11,30,15,0.001,0.009,0.032,0.2,0.001,0.006,5,16.5,59.2,NW,3.1
H04,2022,11,30,16,0.001,0.008,0.032,0.2,0.001,0.006,3,15.4,61.4,NW,4
H04,2022,11,30,17,0.001,0.002,0.033,0.2,0.001,0.006,1,14.4,57.8,NNW,4.9
H04,2022,11,30,18,0.001,0.005,0.032,0.2,0.001,0.005,3,13.2,63.5,NNW,4.5
H04,2022,11,30,19,0.001,0.003,0.031,0.2,0,0.006,3,12.4,62.6,NNW,3.9
H04,2022,11,30,20,0.001,0.001,0.033,0.2,0,0.005,0,12.1,58.9,NW,4
H04,2022,11,30,21,0.001,0.006,0.036,0.2,0,0.004,2,11.7,53.4,NNW,4.1
H04,2022,11,30,22,0.001,0.006,0.037,0.2,0,0.003,3,11.1,54.9,NNW,2.6
H04,2022,11,30,23,0.001,0.003,0.033,0.2,0,0.005,5,10.1,64.9,WNW,3
H04,2022,11,30,24,0.001,0.003,0.034,0.1,0,0.004,2,9.9,65.9,NW,3
H04,2022,12,1,1,0.001,0.003,0.033,0.1,0,0.003,2,9.4,70.9,NNW,1.5
H04,2022,12,1,2,0.001,0.003,0.03,0.1,0,0.004,2,9.3,72.9,N,1.6
H04,2022,12,1,3,0.001,0.002,0.027,0.1,0,0.006,1,9.3,68.7,NNW,2.6
H04,2022,12,1,4,0.001,0.002,0.027,0.1,0,0.005,2,9.1,68,NW,1.8
H04,2022,12,1,5,0.001,0.001,0.027,0.2,0,0.005,0,9,66.9,NW,1.2
H04,2022,12,1,6,0.001,0.001,0.026,0.2,0,0.005,1,8.9,68.4,N,2.2
H04,2022,12,1,7,0.001,0.003,0.024,0.2,0,0.007,1,8.8,68.9,NNW,1.9
H04,2022,12,1,8,0.001,0.002,0.021,0.2,0.003,0.01,2,9.9,55.5,N,1.8
H04,2022,12,1,9,0.001,0.006,0.025,0.2,0.004,0.009,3,11.6,46.8,NW,3.2
H04,2022,12,1,10,0.001,0.001,0.03,0.2,0.002,0.005,0,11.7,47.3,NW,3.5
H04,2022,12,1,11,0.001,0.003,0.034,0.2,0.002,0.004,0,13.5,39.4,NNW,4.2
H04,2022,12,1,12,0.001,0.004,0.035,0.2,0.002,0.004,1,13.7,41.8,NNW,4
H04,2022,12,1,13,0.001,0,0.035,0.2,0.001,0.004,2,12.1,45.9,NW,4.1
H04,2022,12,1,14,0.001,0.001,0.035,0.2,0.001,0.005,3,13,45.5,NW,3
H04,2022,12,1,15,0.001,0.004,0.035,0.2,0.001,0.005,1,12.7,49.4,NW,3.8
H04,2022,12,1,16,0.001,0.003,0.035,0.2,0.001,0.005,4,11.3,56,NW,3
H04,2022,12,1,17,0.001,0.001,0.033,0.2,0.001,0.005,4,9.8,64.1,NW,2.4
H04,2022,12,1,18,0.001,0.001,0.032,0.2,0,0.006,2,9.2,65.5,NW,2.5
H04,2022,12,1,19,0.001,0.002,0.032,0.2,0,0.006,2,8.8,67.1,NW,2.4
H04,2022,12,1,20,0.001,0.004,0.032,0.2,0,0.005,2,8.8,64.6,NW,2.9
H04,2022,12,1,21,0.001,0.002,0.033,0.2,0,0.005,3,8.2,67.9,NW,2.6
H04,2022,12,1,22,0.001,0.002,0.033,0.2,0,0.004,1,7.9,69.2,WNW,3.4
H04,2022,12,1,23,0.001,0,0.033,0.2,0,0.004,1,7.6,69.8,NW,2.7
H04,2022,12,1,24,0.001,0.001,0.033,0.2,0,0.004,2,7.5,69.9,NW,2.3
H04,2022,12,2,1,0.001,0,0.032,0.1,0,0.003,4,7.2,70,NNW,2.6
H04,2022,12,2,2,0,0.001,0.03,0.1,0,0.004,2,6.7,71.7,NNW,2.3
H04,2022,12,2,3,0.001,0.002,0.032,0.1,0,0.003,2,6.7,71.5,NNW,0.8
H04,2022,12,2,4,0.001,0.001,0.032,0.1,0,0.004,3,6.6,71.7,NNW,1.6
H04,2022,12,2,5,0.001,0.001,0.032,0.1,0,0.003,3,6.2,74.5,N,1.4
H04,2022,12,2,6,0,0.005,0.022,0.2,0,0.011,4,5.8,77.9,N,1
H04,2022,12,2,7,0,0.003,0.007,0.2,0.005,0.023,3,5.2,79.5,NE,1.4
H04,2022,12,2,8,0.001,0.005,0.006,0.3,0.014,0.023,4,6.8,62.3,NE,0.5
H04,2022,12,2,9,0.001,0.007,0.022,0.2,0.007,0.014,4,9.9,47.1,NW,3
H04,2022,12,2,10,0.001,0.004,0.031,0.2,0.002,0.008,0,9.5,53.1,NW,3.3
H04,2022,12,2,11,0.001,0.004,0.035,0.2,0.002,0.005,2,11.5,42.6,NNW,4.6
H04,2022,12,2,12,0.001,0.001,0.036,0.2,0.002,0.003,0,11.4,43.1,NW,3.8
H04,2022,12,2,13,0.001,0.001,0.036,0.2,0.001,0.004,1,12.1,42,NW,4.1
H04,2022,12,2,14,0.001,0.001,0.036,0.2,0.001,0.004,0,11.8,44.9,NW,3.9
H04,2022,12,2,15,0.001,0.001,0.037,0.2,0.001,0.003,-2,11.8,39.8,NW,4.6
H04,2022,12,2,16,0.001,0.002,0.036,0.2,0.001,0.004,1,10.9,47.5,NW,3.9
H04,2022,12,2,17,0.001,0.001,0.035,0.2,0.001,0.005,4,9.2,49.4,NW,2.6
H04,2022,12,2,18,0.001,0.003,0.032,0.2,0.001,0.006,3,8.2,58.7,NNW,3
H04,2022,12,2,19,0.001,0.002,0.03,0.2,0.001,0.008,2,7.7,61.6,N,1.8
H04,2022,12,2,20,0.001,0.001,0.028,0.2,0,0.009,1,7.2,64.5,N,1.1
H04,2022,12,2,21,0.001,0.005,0.025,0.2,0,0.011,3,6.6,67.3,NNW,1
H04,2022,12,2,22,0.001,0.003,0.016,0.3,0.001,0.018,5,5.9,70.6,NE,0.8
H04,2022,12,2,23,0.001,0.005,0.01,0.3,0.001,0.018,6,4.7,73.9,NE,1.4
H04,2022,12,2,24,0.001,0.006,0.007,0.3,0.001,0.018,7,3.9,77.8,E,0.7
H04,2022,12,3,1,0.001,0.006,0.008,0.3,0,0.015,2,3.1,80.3,NNW,0.5
H04,2022,12,3,2,0.001,0.004,0.006,0.2,0,0.015,6,3.7,76.7,ENE,0.3
H04,2022,12,3,3,0.001,0.005,0.007,0.2,0,0.014,4,4.1,76.8,NE,0.6
H04,2022,12,3,4,0.001,0.005,0.006,0.2,0.001,0.013,5,4.1,77.2,NNE,0.3
H04,2022,12,3,5,0.001,0.006,0.006,0.2,0.001,0.012,4,4.4,73.4,NE,1.1
H04,2022,12,3,6,0,0.008,0.004,0.2,0.002,0.012,5,3.5,77.1,N,0.4
H04,2022,12,3,7,0,0.005,0.002,0.3,0.013,0.015,4,3.2,78.8,NNE,0.7
H04,2022,12,3,8,0.001,0.006,0.003,0.3,0.023,0.016,8,4.1,65.9,CALM,0.1
H04,2022,12,3,9,0.001,0.012,0.007,0.3,0.018,0.015,7,6.8,46.9,WSW,0.4
H04,2022,12,3,10,0.001,0.011,0.011,0.3,0.014,0.013,5,9.7,33.6,NNW,0.6
H04,2022,12,3,11,0.001,0.007,0.02,0.3,0.007,0.01,4,12,31.3,NNW,1.9
H04,2022,12,3,12,0.001,0.007,0.028,0.3,0.005,0.009,4,13.2,29.6,NNW,1.7
H04,2022,12,3,13,0.001,0.005,0.035,0.2,0.002,0.006,3,13.3,27.4,N,1.1
H04,2022,12,3,14,0.001,0.003,0.039,0.2,0.001,0.005,5,13.3,29.1,W,1.4
H04,2022,12,3,15,0.001,0.003,0.039,0.2,0.001,0.006,2,13.1,29.9,WNW,2.2
H04,2022,12,3,16,0.001,0.002,0.037,0.2,0.001,0.009,3,12.9,31.3,NW,1.6
H04,2022,12,3,17,0.001,0.005,0.032,0.3,0.001,0.012,7,10.3,46.3,CALM,0.2
H04,2022,12,3,18,0.001,0.013,0.012,0.5,0.003,0.023,9,8.8,60.4,CALM,0.2
H04,2022,12,3,19,0.001,0.015,0.004,0.5,0.005,0.03,13,7.4,62.1,E,0.7
H04,2022,12,3,20,0.001,0.015,0.007,0.4,0.001,0.026,15,7.3,66.1,NNE,0.5
H04,2022,12,3,21,0.001,0.012,0.006,0.4,0.002,0.023,12,6.1,74.7,CALM,0.1
H04,2022,12,3,22,0.001,0.011,0.004,0.4,0.002,0.022,10,5.2,76.9,NW,0.3
H04,2022,12,3,23,0.001,0.009,0.005,0.4,0.001,0.02,7,5,78,ENE,0.6
H04,2022,12,3,24,0,0.009,0.004,0.4,0.002,0.019,10,4.9,79.2,CALM,0.2
H04,2022,12,4,1,0.001,0.008,0.01,0.3,0.001,0.014,9,5.9,69.1,NE,2
H04,2022,12,4,2,0.001,0.008,0.014,0.2,0,0.009,8,4.7,78.6,NE,0.4
H04,2022,12,4,3,0,0.009,0.008,0.2,0,0.01,7,4.4,79.7,CALM,0.2
H04,2022,12,4,4,0.001,0.007,0.007,0.2,0,0.012,7,4.8,77.6,E,0.4
H04,2022,12,4,5,0.001,0.006,0.011,0.2,0,0.01,8,4.4,78.3,CALM,0.2
H04,2022,12,4,6,0.001,0.01,0.007,0.2,0.001,0.012,8,4.8,78.5,CALM,0.2
H04,2022,12,4,7,0,0.008,0.005,0.3,0.002,0.013,8,4.3,79.4,ESE,0.6
H04,2022,12,4,8,0.001,0.009,0.005,0.3,0.007,0.013,8,6.3,61.5,NW,0.3
H04,2022,12,4,9,0.001,0.014,0.013,0.3,0.005,0.009,9,9.7,52.6,N,0.8
H04,2022,12,4,10,0.001,0.009,0.021,0.3,0.004,0.009,7,11.8,41.5,NW,1.4
H04,2022,12,4,11,0.001,0.014,0.025,0.3,0.004,0.009,9,12.7,47.5,NNW,2.1
H04,2022,12,4,12,0.001,0.01,0.023,0.3,0.004,0.01,11,13,48.6,NNW,2.5
H04,2022,12,4,13,0.001,0.011,0.029,0.3,0.002,0.006,7,13.4,55.5,NW,3.5
H04,2022,12,4,14,0.001,0.012,0.031,0.2,0.001,0.006,10,13.5,59.8,NW,3.2
H04,2022,12,4,15,0.001,0.009,0.031,0.2,0.001,0.005,8,13.2,63.4,NNW,4
H04,2022,12,4,16,0.001,0.011,0.028,0.2,0.002,0.007,7,12.3,69.7,NW,2.8
H04,2022,12,4,17,0.001,0.012,0.027,0.3,0.001,0.008,8,11.8,71.4,NNW,2.9
H04,2022,12,4,18,0.001,0.011,0.023,0.3,0,0.01,7,11.2,73.3,NNW,2.4
H04,2022,12,4,19,0.001,0.012,0.024,0.3,0,0.01,9,11.4,65,NNW,3.6
H04,2022,12,4,20,0,0.013,0.031,0.2,0,0.008,7,11.7,54.6,NW,3.1
H04,2022,12,4,21,0.001,0.013,0.036,0.2,0,0.005,6,11.3,55.3,N,1
H04,2022,12,4,22,0,0.011,0.036,0.2,0,0.005,6,11.3,52.6,NNW,1.8
H04,2022,12,4,23,0.001,0.008,0.036,0.2,0,0.005,4,10.8,52.3,NNW,2.6
H04,2022,12,4,24,0,0.008,0.035,0.2,0,0.006,8,10.4,54.2,N,1
H04,2022,12,5,1,0.001,0.008,0.034,0.2,0,0.005,8,9.3,58.2,NNW,1.5
H04,2022,12,5,2,0.001,0.008,0.033,0.2,0,0.005,6,9.5,57.7,NNW,2.1
H04,2022,12,5,3,0.001,0.007,0.031,0.2,0,0.006,4,8.8,60.7,NNE,1.4
H04,2022,12,5,4,0.001,0.008,0.028,0.2,0,0.007,5,8.6,61.6,NE,1.2
H04,2022,12,5,5,0.001,0.007,0.025,0.2,0,0.007,7,8.3,64.2,N,1.1
H04,2022,12,5,6,0.001,0.01,0.018,0.2,0.001,0.012,8,6.8,71.4,SSW,0.6
H04,2022,12,5,7,0.001,0.014,0.005,0.3,0.008,0.024,8,7.4,72.8,ENE,0.5
H04,2022,12,5,8,0.001,0.009,0.003,0.4,0.024,0.026,7,7.2,66.8,S,0.5
H04,2022,12,5,9,0.001,0.008,0.016,0.3,0.012,0.019,6,12.3,37,NNE,1.4
H04,2022,12,5,10,0.001,0.005,0.034,0.2,0.002,0.005,5,13.2,37.6,N,3
H04,2022,12,5,11,0.001,0.006,0.036,0.2,0.002,0.005,4,14.3,33.9,NW,2.3
H04,2022,12,5,12,0.001,0.008,0.035,0.2,0.002,0.007,3,13.3,45.6,N,2.4
H04,2022,12,5,13,0.001,0.002,0.032,0.2,0.002,0.009,4,12.9,47.1,NNW,1.7
H04,2022,12,5,14,0.001,0.004,0.034,0.2,0.002,0.008,3,12.7,55.5,NW,2.3
H04,2022,12,5,15,0.001,0.003,0.034,0.2,0.001,0.006,4,12.9,55.7,N,2.7
H04,2022,12,5,16,0.001,0.003,0.031,0.2,0.002,0.01,3,12.5,56.9,NNW,1.7
H04,2022,12,5,17,0,0.006,0.028,0.2,0.001,0.011,2,11.9,61.1,WNW,2.1
H04,2022,12,5,18,0.001,0.007,0.026,0.3,0.002,0.012,3,11.7,59.4,NNW,0.7
H04,2022,12,5,19,0.001,0.006,0.027,0.2,0.001,0.011,4,11.4,59.4,NE,0.7
H04,2022,12,5,20,0.001,0.005,0.021,0.3,0.001,0.015,4,10.9,65.9,NE,0.8
H04,2022,12,5,21,0.001,0.006,0.018,0.3,0.001,0.015,5,10.1,71.8,ENE,0.5
H04,2022,12,5,22,0.001,0.009,0.014,0.2,0,0.014,6,9.7,76.6,CALM,0.2
H04,2022,12,5,23,0.001,0.006,0.011,0.3,0.001,0.015,6,10,73.3,NE,0.6
H04,2022,12,5,24,0.001,0.007,0.012,0.2,0,0.016,4,10,71.1,NNE,1.2
H04,2022,12,6,1,***,0.004,0.022,***,***,***,3,9.9,69.1,NE,0.9
H04,2022,12,6,2,0.001,0.005,0.02,0.2,0,0.009,2,9.8,69.2,NNE,1.3
H04,2022,12,6,3,0.001,0.006,0.019,0.2,0,0.009,3,9.1,74.4,NE,0.4
H04,2022,12,6,4,0.001,0.005,0.021,0.2,0,0.008,3,8.1,77.3,N,0.7
H04,2022,12,6,5,0.001,0.003,0.015,0.2,0.001,0.011,4,6.8,82.3,CALM,0.2
H04,2022,12,6,6,0.001,0.005,0.004,0.2,0.003,0.019,5,6.4,84.6,ENE,0.3
H04,2022,12,6,7,0.001,0.008,0.002,0.2,0.008,0.02,6,6.6,82.1,NNW,0.3
H04,2022,12,6,8,0.001,0.01,0.002,0.3,0.015,0.021,6,8.6,77.4,NNE,0.4
H04,2022,12,6,9,0.001,0.008,0.012,0.3,0.008,0.018,5,9.9,69.2,NW,1.5
H04,2022,12,6,10,0.001,0.007,0.02,0.3,0.005,0.015,5,11.8,52.4,NNW,3.3
H04,2022,12,6,11,0.001,0.006,0.033,0.2,0.003,0.007,0,13,48,NNW,3.8
H04,2022,12,6,12,0.001,0.004,0.036,0.2,0.002,0.005,4,13.1,44.3,NW,3
H04,2022,12,6,13,0.001,0.005,0.038,0.2,0.002,0.005,2,15.1,38,N,3.1
H04,2022,12,6,14,0.001,0.008,0.039,0.2,0.002,0.003,3,14.3,40.2,NW,3.5
H04,2022,12,6,15,0.001,0.004,0.039,0.1,0.001,0.003,4,11.7,53.2,NW,4.2
H04,2022,12,6,16,0.001,0,0.038,0.2,0.001,0.004,1,11.5,49.9,NNW,4.6
H04,2022,12,6,17,0.001,0.002,0.038,0.2,0.001,0.004,4,10.5,52.2,NNW,2.6
H04,2022,12,6,18,0,0.005,0.036,0.2,0.001,0.006,2,9.6,59.6,NNW,2
H04,2022,12,6,19,0.001,0.002,0.033,0.2,0.001,0.007,2,9,63,NNW,0.9
H04,2022,12,6,20,0.001,0.005,0.028,0.2,0.001,0.011,3,8.7,65.5,NNE,0.9
H04,2022,12,6,21,0.001,0.007,0.02,0.3,0.001,0.015,3,7,73.7,ENE,0.8
H04,2022,12,6,22,0,0.01,0.01,0.3,0.001,0.023,7,7.8,61.5,NNW,1.9
H04,2022,12,6,23,0.001,0.005,0.029,0.2,0,0.009,4,6.2,74.1,NNE,0.7
H04,2022,12,6,24,0.001,0.003,0.014,0.2,0,0.015,5,5.6,76,NE,1.3
H04,2022,12,7,1,0.001,0.003,0.021,0.2,0,0.011,6,5.4,75.5,NE,1.8
H04,2022,12,7,2,0,0.008,0.027,0.2,0,0.008,4,5.5,72.5,NE,0.8
H04,2022,12,7,3,0.001,0.009,0.02,0.2,0,0.012,9,5.1,75.7,NNW,0.8
H04,2022,12,7,4,0.001,0.005,0.031,0.2,0,0.006,5,5.8,68.1,N,0.7
H04,2022,12,7,5,0.001,0.005,0.016,0.2,0,0.013,5,4,77,ENE,0.6
H04,2022,12,7,6,0.001,0.007,0.006,0.2,0.002,0.019,6,3.3,81.5,E,0.4
H04,2022,12,7,7,0.001,0.008,0.003,0.3,0.009,0.023,5,3.1,82,NE,0.4
H04,2022,12,7,8,0,0.01,0.004,0.4,0.019,0.024,8,5.3,66.3,NE,1.2
H04,2022,12,7,9,0.001,0.014,0.01,0.7,0.02,0.023,13,8.6,42.5,NNE,0.5
H04,2022,12,7,10,0.001,0.014,0.023,0.4,0.008,0.017,8,10.2,38.4,NW,1.6
H04,2022,12,7,11,0.001,0.01,0.034,0.3,0.004,0.008,6,11.9,38.1,WNW,3.3
H04,2022,12,7,12,0.001,0.007,0.04,0.2,0.001,0.003,6,12.4,39.5,NW,3.7
H04,2022,12,7,13,0.001,0.005,0.04,0.2,0.001,0.003,5,11.7,43.2,NW,3.7
H04,2022,12,7,14,0.001,0.005,0.04,0.2,0.001,0.003,6,11.7,41.2,NW,4.6
H04,2022,12,7,15,0.001,0.006,0.04,0.2,0.001,0.004,5,11.9,43.1,NW,2.5
H04,2022,12,7,16,0.001,0.007,0.037,0.2,0.001,0.006,5,11.3,46.1,NW,2.5
H04,2022,12,7,17,0.001,0.011,0.037,0.2,0.001,0.006,6,10.8,46,NW,3.1
H04,2022,12,7,18,0.001,0.011,0.034,0.3,0.001,0.007,8,10.4,49.9,NW,2.2
H04,2022,12,7,19,0.001,0.007,0.031,0.3,0.001,0.009,8,9.8,52.9,NNW,1
H04,2022,12,7,20,0.001,0.012,0.016,0.4,0.001,0.02,10,7.9,65.3,ESE,0.4
H04,2022,12,7,21,0.001,0.016,0.005,0.5,0.004,0.025,8,6.9,71.1,ENE,0.3
H04,2022,12,7,22,0.001,0.01,0.004,0.4,0.003,0.025,10,5.7,73.4,E,0.7
H04,2022,12,7,23,0.001,0.011,0.01,0.3,0.001,0.02,10,6.1,71.3,SE,0.3
H04,2022,12,7,24,0.001,0.01,0.011,0.3,0.001,0.016,9,4.8,78.8,S,0.5
H04,2022,12,8,1,0.001,0.008,0.009,0.3,0.001,0.013,7,4.4,81.4,N,0.3
H04,2022,12,8,2,0.001,0.009,0.004,0.3,0.002,0.018,9,3.9,81.2,NE,0.4
H04,2022,12,8,3,0.001,0.009,0.002,0.2,0.002,0.019,9,3.2,83.2,NNW,0.4
H04,2022,12,8,4,0.001,0.01,0.002,0.2,0.003,0.017,8,2.7,84.1,CALM,0.2
H04,2022,12,8,5,0.001,0.01,0.001,0.3,0.007,0.018,8,3,84.2,ENE,0.4
H04,2022,12,8,6,0,0.01,0.001,0.3,0.011,0.018,8,3.5,83.5,NE,0.4
H04,2022,12,8,7,0.001,0.013,0.001,0.4,0.025,0.021,7,3.5,83.5,SW,0.4
H04,2022,12,8,8,0.001,0.012,0.002,0.5,0.039,0.022,9,5.9,76.8,ENE,0.9
H04,2022,12,8,9,0.001,0.019,0.007,0.5,0.025,0.026,14,8.6,61.2,N,0.6
H04,2022,12,8,10,0.001,0.019,0.02,0.4,0.01,0.018,12,11.7,45.6,N,2.3
H04,2022,12,8,11,0.001,0.016,0.028,0.3,0.005,0.012,8,12.3,49.7,N,2.5
H04,2022,12,8,12,0.001,0.011,0.029,0.3,0.004,0.012,14,13.1,45.6,NNW,3.5
H04,2022,12,8,13,0.001,0.011,0.037,0.3,0.002,0.006,9,12.8,53.4,NNW,3.7
H04,2022,12,8,14,0.001,0.011,0.036,0.2,0.002,0.006,9,14.1,46.3,NNW,2.7
H04,2022,12,8,15,0.001,0.009,0.036,0.2,0.002,0.007,6,14.1,48.1,N,3.7
H04,2022,12,8,16,0.001,0.004,0.036,0.2,0.001,0.007,4,12.6,51.2,N,3.7
H04,2022,12,8,17,0.001,0.005,0.037,0.2,0.001,0.006,7,11.7,59,NNW,1.8
H04,2022,12,8,18,0.001,0.008,0.029,0.3,0.001,0.011,5,10.3,66.1,NNW,1.1
H04,2022,12,8,19,0.001,0.01,0.02,0.4,0.001,0.02,7,9.4,65.2,NNW,0.5
H04,2022,12,8,20,0.001,0.008,0.023,0.3,0.001,0.016,6,9.6,60.1,NNW,1.9
H04,2022,12,8,21,0.001,0.01,0.023,0.3,0.001,0.017,5,9.1,62.1,NNE,1.1
H04,2022,12,8,22,0.001,0.011,0.017,0.3,0.001,0.018,7,7.3,69.7,NE,0.8
H04,2022,12,8,23,0.001,0.009,0.01,0.3,0.001,0.019,7,6,77.2,CALM,0
H04,2022,12,8,24,0.001,0.009,0.007,0.3,0.001,0.019,5,5,80.5,CALM,0.2
H04,2022,12,9,1,0.001,0.009,0.01,0.3,0.001,0.015,6,4.8,81.6,CALM,0.1
H04,2022,12,9,2,0.001,0.008,0.01,0.3,0,0.014,7,4.2,83.2,CALM,0
H04,2022,12,9,3,0.001,0.009,0.004,0.3,0.002,0.017,7,3.9,82.4,CALM,0
H04,2022,12,9,4,0.001,0.006,0.001,0.3,0.006,0.018,8,3,86.5,SSW,0.4
H04,2022,12,9,5,0.001,0.007,0.01,0.2,0,0.012,5,4.5,77.8,N,0.6
H04,2022,12,9,6,0.001,0.007,0.011,0.2,0.001,0.011,6,4.6,76.5,NNE,0.7
H04,2022,12,9,7,0.001,0.007,0.007,0.3,0.007,0.015,6,3.7,79.9,CALM,0.1
H04,2022,12,9,8,0.001,0.011,0.003,0.4,0.025,0.02,5,5.9,64.5,NE,0.4
H04,2022,12,9,9,0.001,0.014,0.01,0.3,0.016,0.018,8,9.3,44,NE,1.6
H04,2022,12,9,10,0.001,0.009,0.022,0.3,0.006,0.011,5,12.1,37.4,N,1.6
H04,2022,12,9,11,0.001,0.008,0.03,0.2,0.004,0.008,4,13.3,36.8,NE,2.2
H04,2022,12,9,12,0.001,0.01,0.035,0.2,0.003,0.007,2,14.8,34.1,NNE,2.2
H04,2022,12,9,13,0.001,0.008,0.035,0.3,0.004,0.009,7,14.6,29.5,NNW,1.4
H04,2022,12,9,14,0.001,0.008,0.041,0.2,0.002,0.007,2,15.8,30.1,NW,1.8
H04,2022,12,9,15,0.001,0.008,0.043,0.2,0.001,0.005,6,15.6,30.8,NNW,2.1
H04,2022,12,9,16,0.001,0.007,0.041,0.2,0.002,0.007,4,14.6,34.4,NW,1.9
H04,2022,12,9,17,0.001,0.005,0.036,0.2,0.001,0.01,9,12.2,44.6,WNW,0.4
H04,2022,12,9,18,0.001,0.011,0.013,0.5,0.006,0.029,12,10.2,58.2,ENE,0.6
H04,2022,12,9,19,0.001,0.014,0.003,0.5,0.014,0.034,12,8.8,64.9,ESE,0.9
H04,2022,12,9,20,0.001,0.015,0.001,0.5,0.015,0.033,12,7.8,68.6,NE,0.5
H04,2022,12,9,21,0.001,0.018,0.001,0.6,0.013,0.032,14,7.5,72,NNE,0.4
H04,2022,12,9,22,0.001,0.011,0.003,0.4,0.006,0.029,8,7.4,69.7,ESE,0.9
H04,2022,12,9,23,0.001,0.011,0.004,0.5,0.002,0.025,11,6.8,74.4,NE,0.5
H04,2022,12,9,24,0.001,0.008,0.004,0.3,0.001,0.022,7,6.9,74.8,NNE,1
H04,2022,12,10,1,0.001,0.009,0.005,0.3,0.001,0.019,8,5.8,78.8,E,0.4
H04,2022,12,10,2,0.001,0.011,0.004,0.3,0.002,0.021,8,6.1,77.9,ESE,0.8
H04,2022,12,10,3,0.001,0.009,0.005,0.3,0.001,0.019,10,5.6,77,SSE,0.9
H04,2022,12,10,4,0.001,0.01,0.004,0.3,0.001,0.017,10,4.7,83.5,CALM,0.1
H04,2022,12,10,5,0.001,0.008,0.002,0.3,0.003,0.018,8,4.1,84.9,E,0.4
H04,2022,12,10,6,0.001,0.009,0.001,0.3,0.008,0.018,8,3.6,84.5,ENE,0.7
H04,2022,12,10,7,0.001,0.011,0.001,0.3,0.018,0.018,9,3.4,85.8,ESE,0.3
H04,2022,12,10,8,0.001,0.014,0.002,0.4,0.029,0.019,10,5.1,73,N,0.6
H04,2022,12,10,9,0.001,0.017,0.007,0.4,0.022,0.017,13,8.5,45.7,NNE,0.4
H04,2022,12,10,10,0.001,0.014,0.017,0.3,0.01,0.013,5,12.8,37.7,N,1.7
H04,2022,12,10,11,0.001,0.007,0.029,0.2,0.003,0.006,6,14.7,35.4,N,2.5
H04,2022,12,10,12,0.001,0.011,0.036,0.2,0.002,0.005,5,16.4,31.6,N,2.4
H04,2022,12,10,13,0.001,0.009,0.043,0.2,0.001,0.005,3,17.6,26.9,N,1.9
H04,2022,12,10,14,0.002,0.01,0.043,0.2,0.001,0.006,8,17.3,30.7,WNW,2
H04,2022,12,10,15,0.001,0.011,0.046,0.2,0.001,0.006,5,17.1,33.2,NW,2
H04,2022,12,10,16,0.001,0.018,0.043,0.3,0.002,0.008,16,16,38.6,W,1.1
H04,2022,12,10,17,0.001,0.012,0.04,0.3,0,0.01,10,14.4,49,NNW,0.4
H04,2022,12,10,18,0.001,0.015,0.016,0.5,0.002,0.027,13,11.4,63,CALM,0.2
H04,2022,12,10,19,0.001,0.023,0.01,0.5,0.002,0.027,21,10.1,67.8,NE,0.7
H04,2022,12,10,20,0.001,0.019,0.007,0.5,0.003,0.026,16,9.8,70.3,NE,0.7
H04,2022,12,10,21,0.001,0.014,0.011,0.4,0.001,0.02,11,10.5,65.5,CALM,0.2
H04,2022,12,10,22,0.001,0.012,0.014,0.4,0.001,0.014,12,8.7,73.6,NNE,0.5
H04,2022,12,10,23,0.001,0.011,0.014,0.3,0.001,0.011,12,8.2,78.1,CALM,0.1
H04,2022,12,10,24,0.001,0.012,0.011,0.3,0,0.011,9,8,76.1,NNE,1.2
H04,2022,12,11,1,0.001,0.009,0.012,0.3,0,0.012,10,8,77.1,CALM,0.1
H04,2022,12,11,2,0.001,0.012,0.013,0.2,0,0.011,9,8.1,75.3,CALM,0.2
H04,2022,12,11,3,0.001,0.01,0.013,0.2,0,0.009,9,7.8,78.9,CALM,0
H04,2022,12,11,4,0,0.011,0.009,0.2,0,0.011,9,7.8,81.5,CALM,0.1
H04,2022,12,11,5,0,0.01,0.007,0.2,0.001,0.01,8,7.8,81,CALM,0
H04,2022,12,11,6,0.001,0.012,0.006,0.2,0.001,0.013,10,8.1,80.3,SW,0.4
H04,2022,12,11,7,0.001,0.015,0.004,0.3,0.001,0.013,10,8.1,80.8,NNE,0.7
H04,2022,12,11,8,0.001,0.013,0.004,0.3,0.005,0.014,11,8.1,78.8,ESE,0.6
H04,2022,12,11,9,0.001,0.017,0.007,0.4,0.009,0.014,14,9.4,69.4,SW,0.5
H04,2022,12,11,10,0.001,0.02,0.015,0.4,0.007,0.013,15,12,58.3,NNW,1
H04,2022,12,11,11,0.001,0.015,0.031,0.3,0.002,0.007,10,14.1,45.7,NW,2.2
H04,2022,12,11,12,0.002,0.017,0.04,0.3,0.002,0.005,8,15.2,45.8,N,2.6
H04,2022,12,11,13,0.001,0.01,0.044,0.2,0.001,0.004,10,16.1,39.1,NW,2.3
H04,2022,12,11,14,0.001,0.007,0.047,0.2,0.001,0.003,6,15.5,46.5,NNW,2.6
H04,2022,12,11,15,0.001,0.006,0.048,0.2,0.001,0.003,6,16.1,44.5,NW,3.1
H04,2022,12,11,16,0.001,0.008,0.04,0.2,0.001,0.004,7,13,59.7,N,3.5
H04,2022,12,11,17,0.001,0.002,0.034,0.2,0.001,0.004,5,12.4,54,NNE,2.8
H04,2022,12,11,18,0.001,0.001,0.036,0.2,0,0.004,1,11.4,51.4,NNE,3.2
H04,2022,12,11,19,0.001,0.003,0.036,0.2,0,0.004,2,10.5,51.8,NNE,3.9
H04,2022,12,11,20,0.001,0.004,0.04,0.2,0,0.003,2,10.2,48.7,N,4.1
H04,2022,12,11,21,0.001,0.003,0.041,0.2,0,0.002,2,10.1,48.2,N,4.6
H04,2022,12,11,22,0.001,0.002,0.041,0.2,0,0.003,4,9.9,47.9,N,4.2
H04,2022,12,11,23,0.001,0.003,0.041,0.2,0,0.003,2,10.1,46.4,N,4.5
H04,2022,12,11,24,0.001,0.004,0.041,0.2,0,0.002,3,9.7,48.6,N,3.9
H04,2022,12,12,1,0.001,0.005,0.04,0.2,0,0.003,4,9,51.1,N,2.9
H04,2022,12,12,2,0.001,0.006,0.036,0.2,0,0.005,3,8.3,53.3,NNW,3.2
H04,2022,12,12,3,0.001,0.005,0.037,0.2,0,0.003,3,7.9,54.5,N,1.6
H04,2022,12,12,4,0.001,0.004,0.038,0.2,0,0.003,4,7.7,54.2,NNW,3.2
H04,2022,12,12,5,0.001,0.005,0.036,0.2,0,0.005,5,7,54.1,N,2.2
H04,2022,12,12,6,0.001,0.004,0.033,0.2,0,0.007,6,6.5,55.1,N,1.7
H04,2022,12,12,7,0.001,0.008,0.026,0.2,0.001,0.013,7,6,56.9,N,1.5
H04,2022,12,12,8,0.001,0.008,0.018,0.3,0.006,0.023,9,6.8,52.6,E,0.6
H04,2022,12,12,9,0.001,0.011,0.025,0.3,0.007,0.016,5,9.6,37.7,NNE,2.2
H04,2022,12,12,10,0.001,0.009,0.033,0.2,0.003,0.008,5,10.4,31.3,NW,1
H04,2022,12,12,11,0.001,0.007,0.036,0.2,0.002,0.005,3,12.3,30.3,NNW,2.6
H04,2022,12,12,12,0.001,0.008,0.037,0.2,0.003,0.007,4,13.5,27.6,NW,2.5
H04,2022,12,12,13,0.001,0.008,0.04,0.2,0.002,0.006,5,13.7,25.4,NW,1.4
H04,2022,12,12,14,0.001,0.006,0.042,0.2,0.001,0.005,2,14.1,31,SW,1.4
H04,2022,12,12,15,0.001,0.005,0.043,0.2,0.001,0.006,4,14.3,37.6,SSW,1.8
H04,2022,12,12,16,0.002,0.007,0.04,0.2,0.001,0.01,4,13.5,40.7,SSW,1.6
H04,2022,12,12,17,0.001,0.007,0.035,0.3,0.001,0.015,7,12.3,49.2,SSE,0.7
H04,2022,12,12,18,0.001,0.019,0.017,0.5,0.003,0.027,19,10.5,58,NE,0.6
H04,2022,12,12,19,0.001,0.014,0.009,0.4,0.005,0.033,10,10.9,56.9,ESE,0.7
H04,2022,12,12,20,0.001,0.011,0.02,0.3,0.001,0.019,8,9.5,60.3,CALM,0.2
H04,2022,12,12,21,0.001,0.006,0.026,0.3,0,0.012,5,9.6,57.4,NE,0.5
H04,2022,12,12,22,0.001,0.005,0.033,0.2,0,0.007,4,10,52.8,ESE,1.2
H04,2022,12,12,23,0.001,0.003,0.036,0.2,0,0.005,5,9.9,52.1,ESE,1
H04,2022,12,12,24,0.001,0.004,0.031,0.2,0,0.005,5,8.8,60.7,NNE,0.6
H04,2022,12,13,1,***,0.007,0.024,***,***,***,7,9,63.3,CALM,0.2
H04,2022,12,13,2,0.001,0.01,0.021,0.3,0.001,0.013,8,8.7,76.7,NW,1.8
H04,2022,12,13,3,0.001,0.009,0.017,0.3,0,0.015,9,7.5,86.2,NE,2.1
H04,2022,12,13,4,0.001,0.009,0.02,0.3,0,0.012,6,7.5,86.4,ESE,1.4
H04,2022,12,13,5,0.001,0.008,0.022,0.3,0,0.008,7,7.8,86.3,NNE,1.3
H04,2022,12,13,6,0.001,0.008,0.016,0.3,0,0.013,8,7.9,86.9,N,0.6
H04,2022,12,13,7,0.001,0.009,0.013,0.2,0.001,0.015,7,8,86.3,NNW,1.6
H04,2022,12,13,8,0.001,0.01,0.01,0.3,0.002,0.02,10,8.2,86.5,NNE,1.3